Year,Month,Day,Hour,Minute,Value (Times are PST for temperature in C)
2014,12,12,14,19,7.90
2014,12,12,14,20,7.90
2014,12,12,14,21,7.80
2014,12,12,14,22,7.80
2014,12,12,14,23,7.80
2014,12,12,14,24,7.80
2014,12,12,14,25,7.80
2014,12,12,14,26,7.80
2014,12,12,14,27,7.80
2014,12,12,14,28,7.80
2014,12,12,14,29,7.80
2014,12,12,14,30,7.80
2014,12,12,14,31,7.80
2014,12,12,14,32,7.70
2014,12,12,14,33,7.70
2014,12,12,14,34,7.70
2014,12,12,14,35,7.70
2014,12,12,14,36,7.70
2014,12,12,14,37,7.70
2014,12,12,14,38,7.70
2014,12,12,14,39,7.70
2014,12,12,14,40,7.70
2014,12,12,14,41,7.60
2014,12,12,14,42,7.60
2014,12,12,14,43,7.60
2014,12,12,14,44,7.60
2014,12,12,14,45,7.60
2014,12,12,14,46,7.60
2014,12,12,14,47,7.60
2014,12,12,14,48,7.60
2014,12,12,14,49,7.60
2014,12,12,14,50,7.60
2014,12,12,14,51,7.60
2014,12,12,14,52,7.60
2014,12,12,14,53,7.60
2014,12,12,14,54,7.60
2014,12,12,14,55,7.60
2014,12,12,14,56,7.60
2014,12,12,14,57,7.60
2014,12,12,14,58,7.60
2014,12,12,14,59,7.60
2014,12,12,15,00,7.60
2014,12,12,15,01,7.60
2014,12,12,15,02,7.50
2014,12,12,15,03,7.50
2014,12,12,15,04,7.50
2014,12,12,15,05,7.50
2014,12,12,15,06,7.50
2014,12,12,15,07,7.50
2014,12,12,15,08,7.40
2014,12,12,15,09,7.40
2014,12,12,15,10,7.40
2014,12,12,15,11,7.40
2014,12,12,15,12,7.40
2014,12,12,15,13,7.40
2014,12,12,15,14,7.40
2014,12,12,15,15,7.40
2014,12,12,15,16,7.40
2014,12,12,15,17,7.40
2014,12,12,15,18,7.40
2014,12,12,15,19,7.40
2014,12,12,15,20,7.40
2014,12,12,15,21,7.40
2014,12,12,15,22,7.40
2014,12,12,15,23,7.40
2014,12,12,15,24,7.40
2014,12,12,15,25,7.30
2014,12,12,15,26,7.40
2014,12,12,15,27,7.30
2014,12,12,15,28,7.30
2014,12,12,15,29,7.30
2014,12,12,15,30,7.30
2014,12,12,15,31,7.30
2014,12,12,15,32,7.30
2014,12,12,15,33,7.30
2014,12,12,15,34,7.30
2014,12,12,15,35,7.30
2014,12,12,15,36,7.30
2014,12,12,15,37,7.30
2014,12,12,15,38,7.30
2014,12,12,15,39,7.20
2014,12,12,15,40,7.20
2014,12,12,15,41,7.20
2014,12,12,15,42,7.20
2014,12,12,15,43,7.20
2014,12,12,15,44,7.20
2014,12,12,15,45,7.20
2014,12,12,15,46,7.20
2014,12,12,15,47,7.20
2014,12,12,15,48,7.10
2014,12,12,15,49,7.10
2014,12,12,15,50,7.10
2014,12,12,15,51,7.10
2014,12,12,15,52,7.00
2014,12,12,15,53,7.00
2014,12,12,15,54,7.00
2014,12,12,15,55,6.90
2014,12,12,15,56,6.90
2014,12,12,15,57,6.90
2014,12,12,15,58,6.90
2014,12,12,15,59,6.80
2014,12,12,16,00,6.80
2014,12,12,16,01,6.80
2014,12,12,16,02,6.80
2014,12,12,16,03,6.80
2014,12,12,16,04,6.70
2014,12,12,16,05,6.70
2014,12,12,16,06,6.70
2014,12,12,16,07,6.70
2014,12,12,16,08,6.70
2014,12,12,16,09,6.60
2014,12,12,16,10,6.60
2014,12,12,16,11,6.60
2014,12,12,16,12,6.60
2014,12,12,16,13,6.60
2014,12,12,16,14,6.60
2014,12,12,16,15,6.60
2014,12,12,16,16,6.60
2014,12,12,16,17,6.60
2014,12,12,16,18,6.50
2014,12,12,16,19,6.50
2014,12,12,16,20,6.50
2014,12,12,16,21,6.40
2014,12,12,16,22,6.40
2014,12,12,16,23,6.40
2014,12,12,16,24,6.40
2014,12,12,16,25,6.30
2014,12,12,16,26,6.30
2014,12,12,16,27,6.30
2014,12,12,16,28,6.30
2014,12,12,16,29,6.30
2014,12,12,16,30,6.30
2014,12,12,16,31,6.20
2014,12,12,16,32,6.20
2014,12,12,16,33,6.20
2014,12,12,16,34,6.20
2014,12,12,16,35,6.20
2014,12,12,16,36,6.20
2014,12,12,16,37,6.10
2014,12,12,16,38,6.10
2014,12,12,16,39,6.10
2014,12,12,16,40,6.10
2014,12,12,16,41,6.10
2014,12,12,16,42,6.00
2014,12,12,16,43,6.00
2014,12,12,16,44,6.00
2014,12,12,16,45,5.90
2014,12,12,16,46,5.90
2014,12,12,16,47,5.90
2014,12,12,16,48,5.80
2014,12,12,16,49,5.80
2014,12,12,16,50,5.80
2014,12,12,16,51,5.80
2014,12,12,16,52,5.80
2014,12,12,16,53,5.80
2014,12,12,16,54,5.80
2014,12,12,16,55,5.80
2014,12,12,16,56,5.80
2014,12,12,16,57,5.80
2014,12,12,16,58,5.80
2014,12,12,16,59,5.70
2014,12,12,17,00,5.70
2014,12,12,17,01,5.70
2014,12,12,17,02,5.70
2014,12,12,17,03,5.70
2014,12,12,17,04,5.70
2014,12,12,17,05,5.70
2014,12,12,17,06,5.60
2014,12,12,17,07,5.60
2014,12,12,17,08,5.50
2014,12,12,17,09,5.50
2014,12,12,17,10,5.40
2014,12,12,17,11,5.40
2014,12,12,17,12,5.40
2014,12,12,17,13,5.40
2014,12,12,17,14,5.30
2014,12,12,17,15,5.30
2014,12,12,17,16,5.30
2014,12,12,17,17,5.30
2014,12,12,17,18,5.20
2014,12,12,17,19,5.20
2014,12,12,17,20,5.20
2014,12,12,17,21,5.20
2014,12,12,17,22,5.20
2014,12,12,17,23,5.10
2014,12,12,17,24,5.10
2014,12,12,17,25,5.10
2014,12,12,17,26,5.10
2014,12,12,17,27,5.10
2014,12,12,17,28,5.10
2014,12,12,17,29,5.10
2014,12,12,17,30,5.10
2014,12,12,17,31,5.10
2014,12,12,17,32,5.10
2014,12,12,17,33,5.10
2014,12,12,17,34,5.00
2014,12,12,17,35,5.00
2014,12,12,17,36,5.00
2014,12,12,17,37,5.00
2014,12,12,17,38,5.00
2014,12,12,17,39,5.00
2014,12,12,17,40,5.10
2014,12,12,17,41,5.10
2014,12,12,17,42,5.10
2014,12,12,17,43,5.00
2014,12,12,17,44,5.00
2014,12,12,17,45,5.00
2014,12,12,17,46,5.00
2014,12,12,17,47,5.00
2014,12,12,17,48,5.00
2014,12,12,17,49,5.00
2014,12,12,17,50,5.10
2014,12,12,17,51,5.10
2014,12,12,17,52,5.10
2014,12,12,17,53,5.10
2014,12,12,17,54,5.10
2014,12,12,17,55,5.10
2014,12,12,17,56,5.10
2014,12,12,17,57,5.10
2014,12,12,17,58,5.10
2014,12,12,17,59,5.10
2014,12,12,18,00,5.10
2014,12,12,18,01,5.00
2014,12,12,18,02,5.00
2014,12,12,18,03,4.90
2014,12,12,18,04,4.80
2014,12,12,18,05,4.80
2014,12,12,18,06,4.70
2014,12,12,18,07,4.70
2014,12,12,18,08,4.60
2014,12,12,18,09,4.60
2014,12,12,18,10,4.60
2014,12,12,18,11,4.50
2014,12,12,18,12,4.50
2014,12,12,18,13,4.50
2014,12,12,18,14,4.40
2014,12,12,18,15,4.40
2014,12,12,18,16,4.40
2014,12,12,18,17,4.50
2014,12,12,18,18,4.50
2014,12,12,18,19,4.50
2014,12,12,18,20,4.50
2014,12,12,18,21,4.50
2014,12,12,18,22,4.50
2014,12,12,18,23,4.50
2014,12,12,18,24,4.50
2014,12,12,18,25,4.50
2014,12,12,18,26,4.50
2014,12,12,18,27,4.50
2014,12,12,18,28,4.50
2014,12,12,18,29,4.50
2014,12,12,18,30,4.60
2014,12,12,18,31,4.60
2014,12,12,18,32,4.60
2014,12,12,18,33,4.60
2014,12,12,18,34,4.50
2014,12,12,18,35,4.50
2014,12,12,18,36,4.50
2014,12,12,18,37,4.40
2014,12,12,18,38,4.40
2014,12,12,18,39,4.30
2014,12,12,18,40,4.30
2014,12,12,18,41,4.30
2014,12,12,18,42,4.30
2014,12,12,18,43,4.30
2014,12,12,18,44,4.20
2014,12,12,18,45,4.20
2014,12,12,18,46,4.20
2014,12,12,18,47,4.20
2014,12,12,18,48,4.20
2014,12,12,18,49,4.20
2014,12,12,18,50,4.20
2014,12,12,18,51,4.10
2014,12,12,18,52,4.10
2014,12,12,18,53,4.00
2014,12,12,18,54,4.00
2014,12,12,18,55,4.00
2014,12,12,18,56,4.00
2014,12,12,18,57,4.10
2014,12,12,18,58,4.10
2014,12,12,18,59,4.10
2014,12,12,19,00,4.10
2014,12,12,19,01,4.10
2014,12,12,19,02,4.10
2014,12,12,19,03,4.10
2014,12,12,19,04,4.10
2014,12,12,19,05,4.10
2014,12,12,19,06,4.20
2014,12,12,19,07,4.20
2014,12,12,19,08,4.20
2014,12,12,19,09,4.20
2014,12,12,19,10,4.20
2014,12,12,19,11,4.20
2014,12,12,19,12,4.20
2014,12,12,19,13,4.10
2014,12,12,19,14,4.10
2014,12,12,19,15,4.10
2014,12,12,19,16,4.10
2014,12,12,19,17,4.10
2014,12,12,19,18,4.10
2014,12,12,19,19,4.10
2014,12,12,19,20,4.10
2014,12,12,19,21,4.10
2014,12,12,19,22,4.10
2014,12,12,19,23,4.00
2014,12,12,19,24,4.00
2014,12,12,19,25,4.00
2014,12,12,19,26,3.90
2014,12,12,19,27,3.90
2014,12,12,19,28,3.90
2014,12,12,19,29,3.80
2014,12,12,19,30,3.80
2014,12,12,19,31,3.80
2014,12,12,19,32,3.80
2014,12,12,19,33,3.70
2014,12,12,19,34,3.70
2014,12,12,19,35,3.70
2014,12,12,19,36,3.70
2014,12,12,19,37,3.70
2014,12,12,19,38,3.80
2014,12,12,19,39,3.80
2014,12,12,19,40,3.80
2014,12,12,19,41,3.80
2014,12,12,19,42,3.80
2014,12,12,19,43,3.80
2014,12,12,19,44,3.80
2014,12,12,19,45,3.80
2014,12,12,19,46,3.70
2014,12,12,19,47,3.70
2014,12,12,19,48,3.70
2014,12,12,19,49,3.70
2014,12,12,19,50,3.70
2014,12,12,19,51,3.70
2014,12,12,19,52,3.60
2014,12,12,19,53,3.60
2014,12,12,19,54,3.60
2014,12,12,19,55,3.60
2014,12,12,19,56,3.60
2014,12,12,19,57,3.60
2014,12,12,19,58,3.60
2014,12,12,19,59,3.60
2014,12,12,20,00,3.60
2014,12,12,20,01,3.50
2014,12,12,20,02,3.50
2014,12,12,20,03,3.40
2014,12,12,20,04,3.40
2014,12,12,20,05,3.40
2014,12,12,20,06,3.40
2014,12,12,20,07,3.40
2014,12,12,20,08,3.40
2014,12,12,20,09,3.40
2014,12,12,20,10,3.40
2014,12,12,20,11,3.40
2014,12,12,20,12,3.40
2014,12,12,20,13,3.40
2014,12,12,20,14,3.40
2014,12,12,20,15,3.40
2014,12,12,20,16,3.40
2014,12,12,20,17,3.40
2014,12,12,20,18,3.40
2014,12,12,20,19,3.50
2014,12,12,20,20,3.50
2014,12,12,20,21,3.50
2014,12,12,20,22,3.50
2014,12,12,20,23,3.40
2014,12,12,20,24,3.40
2014,12,12,20,25,3.40
2014,12,12,20,26,3.40
2014,12,12,20,27,3.40
2014,12,12,20,28,3.40
2014,12,12,20,29,3.40
2014,12,12,20,30,3.40
2014,12,12,20,31,3.40
2014,12,12,20,32,3.40
2014,12,12,20,33,3.40
2014,12,12,20,34,3.30
2014,12,12,20,35,3.30
2014,12,12,20,36,3.20
2014,12,12,20,37,3.20
2014,12,12,20,38,3.10
2014,12,12,20,39,3.10
2014,12,12,20,40,3.10
2014,12,12,20,41,3.10
2014,12,12,20,42,3.10
2014,12,12,20,43,3.10
2014,12,12,20,44,3.10
2014,12,12,20,45,3.00
2014,12,12,20,46,3.00
2014,12,12,20,47,3.00
2014,12,12,20,48,3.10
2014,12,12,20,49,3.10
2014,12,12,20,50,3.10
2014,12,12,20,51,3.20
2014,12,12,20,52,3.20
2014,12,12,20,53,3.20
2014,12,12,20,54,3.20
2014,12,12,20,55,3.30
2014,12,12,20,56,3.30
2014,12,12,20,57,3.30
2014,12,12,20,58,3.30
2014,12,12,20,59,3.30
2014,12,12,21,00,3.30
2014,12,12,21,01,3.30
2014,12,12,21,02,3.30
2014,12,12,21,03,3.30
2014,12,12,21,04,3.30
2014,12,12,21,05,3.30
2014,12,12,21,06,3.30
2014,12,12,21,07,3.30
2014,12,12,21,08,3.30
2014,12,12,21,09,3.30
2014,12,12,21,10,3.30
2014,12,12,21,11,3.30
2014,12,12,21,12,3.30
2014,12,12,21,13,3.30
2014,12,12,21,14,3.30
2014,12,12,21,15,3.30
2014,12,12,21,16,3.20
2014,12,12,21,17,3.20
2014,12,12,21,18,3.20
2014,12,12,21,19,3.30
2014,12,12,21,20,3.20
2014,12,12,21,21,3.20
2014,12,12,21,22,3.30
2014,12,12,21,23,3.30
2014,12,12,21,24,3.30
2014,12,12,21,25,3.30
2014,12,12,21,26,3.30
2014,12,12,21,27,3.30
2014,12,12,21,28,3.30
2014,12,12,21,29,3.30
2014,12,12,21,30,3.30
2014,12,12,21,31,3.30
2014,12,12,21,32,3.30
2014,12,12,21,33,3.30
2014,12,12,21,34,3.20
2014,12,12,21,35,3.20
2014,12,12,21,36,3.20
2014,12,12,21,37,3.20
2014,12,12,21,38,3.20
2014,12,12,21,39,3.20
2014,12,12,21,40,3.20
2014,12,12,21,41,3.20
2014,12,12,21,42,3.10
2014,12,12,21,43,3.10
2014,12,12,21,44,3.10
2014,12,12,21,45,3.10
2014,12,12,21,46,3.10
2014,12,12,21,47,3.10
2014,12,12,21,48,3.10
2014,12,12,21,49,3.10
2014,12,12,21,50,3.10
2014,12,12,21,51,3.10
2014,12,12,21,52,3.10
2014,12,12,21,53,3.10
2014,12,12,21,54,3.10
2014,12,12,21,55,3.10
2014,12,12,21,56,3.20
2014,12,12,21,57,3.20
2014,12,12,21,58,3.20
2014,12,12,21,59,3.20
2014,12,12,22,00,3.20
2014,12,12,22,01,3.20
2014,12,12,22,02,3.20
2014,12,12,22,03,3.20
2014,12,12,22,04,3.20
2014,12,12,22,05,3.20
2014,12,12,22,06,3.20
2014,12,12,22,07,3.20
2014,12,12,22,08,3.20
2014,12,12,22,09,3.20
2014,12,12,22,10,3.20
2014,12,12,22,11,3.20
2014,12,12,22,12,3.10
2014,12,12,22,13,3.10
2014,12,12,22,14,3.00
2014,12,12,22,15,3.00
2014,12,12,22,16,2.90
2014,12,12,22,17,2.80
2014,12,12,22,18,2.70
2014,12,12,22,19,2.70
2014,12,12,22,20,2.70
2014,12,12,22,21,2.60
2014,12,12,22,22,2.60
2014,12,12,22,23,2.50
2014,12,12,22,24,2.50
2014,12,12,22,25,2.40
2014,12,12,22,26,2.40
2014,12,12,22,27,2.40
2014,12,12,22,28,2.40
2014,12,12,22,29,2.40
2014,12,12,22,30,2.40
2014,12,12,22,31,2.40
2014,12,12,22,32,2.50
2014,12,12,22,33,2.50
2014,12,12,22,34,2.60
2014,12,12,22,35,2.60
2014,12,12,22,36,2.60
2014,12,12,22,37,2.60
2014,12,12,22,38,2.60
2014,12,12,22,39,2.60
2014,12,12,22,40,2.60
2014,12,12,22,41,2.50
2014,12,12,22,42,2.50
2014,12,12,22,43,2.50
2014,12,12,22,44,2.50
2014,12,12,22,45,2.50
2014,12,12,22,46,2.50
2014,12,12,22,47,2.50
2014,12,12,22,48,2.40
2014,12,12,22,49,2.40
2014,12,12,22,50,2.50
2014,12,12,22,51,2.50
2014,12,12,22,52,2.50
2014,12,12,22,53,2.60
2014,12,12,22,54,2.60
2014,12,12,22,55,2.60
2014,12,12,22,56,2.60
2014,12,12,22,57,2.60
2014,12,12,22,58,2.60
2014,12,12,22,59,2.50
2014,12,12,23,00,2.50
2014,12,12,23,01,2.50
2014,12,12,23,02,2.40
2014,12,12,23,03,2.40
2014,12,12,23,04,2.40
2014,12,12,23,05,2.30
2014,12,12,23,06,2.30
2014,12,12,23,07,2.30
2014,12,12,23,08,2.30
2014,12,12,23,09,2.30
2014,12,12,23,10,2.40
2014,12,12,23,11,2.40
2014,12,12,23,12,2.40
2014,12,12,23,13,2.40
2014,12,12,23,14,2.40
2014,12,12,23,15,2.40
2014,12,12,23,16,2.40
2014,12,12,23,17,2.40
2014,12,12,23,18,2.30
2014,12,12,23,19,2.30
2014,12,12,23,20,2.30
2014,12,12,23,21,2.30
2014,12,12,23,22,2.30
2014,12,12,23,23,2.30
2014,12,12,23,24,2.30
2014,12,12,23,25,2.30
2014,12,12,23,26,2.40
2014,12,12,23,27,2.40
2014,12,12,23,28,2.40
2014,12,12,23,29,2.40
2014,12,12,23,30,2.40
2014,12,12,23,31,2.40
2014,12,12,23,32,2.50
2014,12,12,23,33,2.50
2014,12,12,23,34,2.60
2014,12,12,23,35,2.60
2014,12,12,23,36,2.60
2014,12,12,23,37,2.60
2014,12,12,23,38,2.60
2014,12,12,23,39,2.60
2014,12,12,23,40,2.60
2014,12,12,23,41,2.50
2014,12,12,23,42,2.50
2014,12,12,23,43,2.60
2014,12,12,23,44,2.60
2014,12,12,23,45,2.60
2014,12,12,23,46,2.60
2014,12,12,23,47,2.60
2014,12,12,23,48,2.60
2014,12,12,23,49,2.60
2014,12,12,23,50,2.60
2014,12,12,23,51,2.60
2014,12,12,23,52,2.60
2014,12,12,23,53,2.60
2014,12,12,23,54,2.60
2014,12,12,23,55,2.70
2014,12,12,23,56,2.70
2014,12,12,23,57,2.70
2014,12,12,23,58,2.70
2014,12,12,23,59,2.70
